CUBESAT XI-IV (CO-57)

Last updated on Sun Dec 07 2025 00:03:11 GMT+0000 (Coordinated Universal Time)

1 27848U 03031J 25339.94919541 .00000556 00000+0 26365-3 0 9990 2 27848 98.6794 345.8073 0010324 49.0774 311.1296 14.23479496163883
UTC large
Height (km)
Speed (km/s)
/
Latitude / Longitude
Inclination (degrees)
Orbital Period (minutes)
Azimuth
Elevation
Range (km)
Doppler Factor

Next 0 passes for location: London (51.5072 / 0.1276)

Sorry there are no passes over London.